RH
13 13 13 13 13 13 13 12 13 13 13 13 13 13 13 13 13 13 13 12 12 12 12 12 12 12 12 11 11 11 11 11 10 10 10 9 9 9 10 10 10 10 10 10 10 10 9 10 9 9 9 9 9 9 9 10 9 10 9 9 10 9 14 19 17 18 19 20 20 18 18 18 17 16 14 14 14 14 13 13 13 11 10 10 11 10 10 10
13 14 13 13 13 13 13 13 13 13 13 13 13 13 13 13 13 13 13 13 13 13 13 13 12 12 12 12 12 12 12 12 11 10 10 11 11 11 11 11 11 11 10 10 10 10 10 10 10 10 10 10 10 10 10 11 10 11 11 11 11 10 12 14 13 15 16 16 15 14 14 14 15 15 15 16 16 16 16 16 15 13 12 12 12 12 11 10
14 14 14 13 13 13 13 13 13 13 13 13 13 13 13 13 13 14 14 14 14 14 14 13 13 13 13 13 12 12 12 11 11 11 12 13 13 13 12 12 11 11 11 11 11 11 11 11 11 11 11 11 11 11 12 12 13 13 14 14 14 13 14 15 15 15 14 14 14 14 15 16 17 17 17 18 18 18 19 19 17 15 15 14 13 12 11 10
14 14 14 13 13 13 13 13 13 13 13 13 13 13 13 13 13 14 14 14 14 14 14 14 14 13 13 13 12 12 12 12 12 13 14 13 13 13 13 12 12 12 12 12 12 12 12 12 13 13 13 13 13 14 15 15 15 16 16 17 17 16 16 17 18 17 17 17 17 18 18 18 19 19 20 20 19 20 22 23 21 18 17 17 16 15 13 11
14 14 14 14 13 13 13 13 13 13 13 13 13 13 13 14 14 14 14 14 14 14 14 14 13 13 13 14 14 15 17 17 17 16 16 16 16 16 15 14 14 15 15 15 15 15 16 16 16 16 16 16 17 17 18 18 18 18 18 18 18 18 17 18 19 19 19 19 19 20 20 20 20 21 22 21 20 23 24 23 21 19 18 19 19 20 18 15
14 14 14 14 13 13 13 13 14 14 14 14 14 14 14 15 15 15 15 14 14 14 14 14 14 15 16 18 20 22 23 25 24 22 24 24 23 22 20 18 18 19 20 19 20 21 21 21 21 21 21 21 21 20 20 20 20 19 19 19 19 18 18 19 20 20 21 21 22 23 22 21 22 23 22 21 22 24 23 21 20 18 17 18 19 22 23 21
14 14 14 14 14 14 14 14 14 14 15 15 15 15 15 15 15 15 14 14 14 14 14 16 17 19 21 23 26 26 27 29 29 28 28 28 28 27 26 25 24 25 25 25 26 26 25 25 26 25 24 24 23 23 22 22 22 21 20 20 20 20 20 21 21 22 23 23 23 24 21 20 23 23 21 21 21 21 21 21 20 19 18 20 21 21 22 23
14 14 14 14 14 14 14 15 15 15 15 16 16 16 16 15 15 14 14 14 15 16 17 20 22 25 27 27 28 27 27 29 29 29 29 28 28 28 28 28 28 28 28 28 28 28 28 28 28 26 26 26 24 25 24 23 23 22 22 21 21 22 22 23 23 24 25 24 23 22 20 21 22 21 20 20 19 19 19 21 21 21 21 23 23 22 21 21
14 14 14 14 14 15 15 15 16 16 16 17 17 16 16 15 15 15 15 16 18 20 22 24 27 28 29 29 28 27 28 29 29 29 29 28 28 27 27 27 27 28 27 27 27 27 28 29 28 27 27 27 26 26 26 25 24 23 23 23 23 24 24 25 25 26 27 25 24 23 21 22 22 20 20 19 18 17 17 20 22 22 23 25 24 23 22 20
14 14 15 15 15 16 17 17 17 17 17 17 16 16 16 16 16 17 19 21 23 25 27 28 29 30 30 30 29 27 29 30 29 29 29 28 28 27 26 26 25 26 26 26 26 26 28 29 29 27 28 28 27 27 27 26 26 25 25 25 25 25 25 27 28 28 27 25 25 25 23 24 22 20 21 19 18 16 16 20 23 24 26 26 25 24 22 20
15 15 16 16 17 18 18 18 18 17 17 17 17 18 19 20 22 24 26 28 29 30 30 31 31 31 30 30 29 28 30 30 29 29 28 28 27 27 26 26 25 25 26 26 26 26 27 29 29 28 30 29 26 28 28 28 28 27 27 26 26 28 27 28 29 28 27 25 27 27 25 23 23 23 21 20 18 18 17 20 25 29 30 28 27 26 24 22
17 17 18 18 18 19 19 18 18 18 20 22 25 27 28 29 30 31 32 32 32 32 32 32 32 31 31 30 29 29 30 30 29 29 28 28 27 27 26 26 26 26 26 27 27 27 28 29 30 31 32 29 29 31 30 29 28 28 28 28 28 30 29 29 29 28 27 27 28 29 26 22 22 23 21 20 20 20 19 22 27 31 31 31 30 29 28 26
19 19 19 20 20 19 20 20 22 25 29 32 34 35 35 35 34 34 34 33 33 33 33 33 32 32 31 30 29 30 30 29 29 29 28 28 27 27 26 26 27 27 28 28 28 28 29 30 31 32 33 33 33 33 32 30 29 29 31 32 31 31 30 30 30 28 27 28 29 30 28 22 21 22 21 22 23 22 22 25 29 30 30 30 30 30 29 28
20 21 21 21 22 23 25 28 32 35 37 38 38 38 37 36 36 35 35 35 34 34 33 33 32 32 31 29 29 29 28 28 28 28 28 27 27 27 27 28 29 30 30 31 31 30 30 32 33 34 34 35 35 33 32 32 33 34 37 36 35 34 32 30 30 28 27 29 29 30 30 25 22 20 21 24 26 26 26 28 30 30 29 30 30 29 28 27
23 24 26 28 29 32 36 38 40 40 40 40 40 39 38 37 37 36 36 35 34 33 32 31 30 29 28 27 27 27 27 27 27 28 28 27 27 28 28 28 29 30 31 32 33 32 33 34 35 36 36 36 35 34 35 36 38 39 40 37 36 37 34 30 28 27 29 31 32 32 32 29 25 20 20 25 27 28 30 31 31 30 30 29 29 28 26 25
31 34 37 38 40 42 44 44 43 42 42 42 41 40 38 37 35 34 34 32 31 30 29 29 28 27 27 26 26 27 27 27 28 28 28 28 28 29 30 30 30 31 32 34 35 35 36 37 38 39 39 37 36 37 40 41 40 39 39 38 38 39 37 31 26 27 31 33 35 34 32 32 28 22 21 25 28 31 32 32 31 30 29 28 27 26 25 24
41 43 44 44 45 45 45 45 43 43 42 41 39 37 36 34 32 31 30 29 28 27 27 28 26 27 27 27 27 27 27 27 28 28 28 29 29 31 31 31 31 32 33 35 38 39 40 40 40 40 39 38 39 41 43 43 39 38 40 41 40 40 39 33 27 29 32 33 35 34 35 35 29 24 24 26 29 32 33 33 31 29 27 26 25 25 25 24
45 45 44 44 44 44 45 44 42 40 38 37 35 33 32 31 30 30 29 29 29 29 30 29 28 30 30 29 28 28 28 28 28 29 30 31 32 33 34 34 34 34 35 37 39 41 42 41 41 40 38 38 39 41 42 40 39 41 43 44 43 41 40 34 30 32 34 35 36 35 37 37 30 26 27 29 31 32 31 31 29 26 24 24 24 24 24 24
45 44 42 42 42 42 42 40 38 36 34 33 33 33 32 33 33 32 32 32 32 33 34 33 32 34 33 30 29 29 28 28 29 31 33 35 36 38 39 39 39 38 38 40 41 42 41 41 40 39 37 38 39 40 41 41 43 45 44 44 45 44 41 35 33 36 38 39 38 37 38 36 29 27 30 32 34 33 32 30 27 25 25 24 25 25 25 26
44 42 41 40 39 39 38 37 35 35 36 36 38 40 40 42 42 41 41 40 40 40 39 38 36 35 34 32 32 31 30 31 33 35 38 39 41 42 44 43 43 42 43 46 48 47 45 44 43 40 38 39 41 43 44 45 47 47 46 45 46 45 41 36 36 38 40 41 39 37 38 35 30 29 32 34 34 34 34 30 26 25 25 26 26 28 29 29
42 41 39 38 38 39 39 40 41 44 46 48 50 51 52 53 52 50 49 47 47 47 46 46 45 42 41 42 42 41 40 40 39 41 43 43 45 46 47 47 47 47 48 52 55 54 53 51 47 43 43 45 47 48 49 50 50 50 48 47 47 46 42 38 38 40 42 43 40 38 38 35 32 33 35 36 34 33 32 29 27 26 27 28 29 30 31 31
40 38 37 39 43 48 51 54 57 59 60 61 60 59 60 60 59 57 55 52 50 51 53 52 51 50 49 51 53 51 49 47 46 46 47 47 48 49 51 51 50 51 54 56 57 58 60 55 49 48 51 52 52 49 50 52 52 52 50 50 48 45 43 42 41 42 42 41 40 38 38 37 35 36 37 37 36 33 30 28 27 27 28 30 32 32 32 32
40 39 42 49 58 65 68 69 69 68 68 67 65 64 63 62 62 62 61 58 54 54 56 55 55 55 54 55 55 55 53 51 51 51 50 51 52 53 56 55 54 57 58 57 56 59 60 53 49 54 56 54 51 48 48 50 51 50 50 50 47 43 45 46 43 44 43 41 42 41 41 39 36 36 37 37 37 34 31 29 28 29 29 30 32 34 34 34
47 51 57 66 74 77 75 74 72 70 69 69 68 66 65 64 65 65 64 64 59 54 54 56 57 57 56 56 56 56 55 53 53 52 50 53 55 57 60 60 63 64 61 59 59 61 59 50 50 57 58 55 54 50 49 49 50 51 50 49 47 44 46 46 44 44 43 43 44 43 45 41 33 34 36 36 37 35 32 30 29 28 27 28 32 35 37 36
60 67 72 77 80 79 76 74 72 71 70 70 70 68 67 68 68 68 68 69 68 59 53 54 57 57 55 55 55 54 54 54 53 52 52 53 56 61 63 66 69 68 63 63 65 66 61 53 52 56 57 57 56 51 51 52 52 51 50 48 46 45 45 45 44 45 45 45 43 43 51 48 36 35 36 34 35 33 29 28 26 25 25 28 33 37 39 38
75 79 80 80 80 78 76 74 72 72 72 72 73 71 73 73 73 73 72 76 78 67 58 56 57 58 54 51 52 53 57 58 53 54 56 56 59 63 67 68 68 68 67 67 70 69 62 55 54 56 56 58 56 50 50 54 55 52 46 43 45 45 44 44 44 45 48 49 45 44 51 51 45 43 39 33 32 29 26 25 23 24 26 29 34 38 40 39
82 83 82 81 79 77 76 75 75 75 75 76 76 76 78 77 79 79 76 82 82 68 61 60 57 57 53 50 50 54 61 59 52 54 56 57 62 64 67 69 67 68 70 70 69 65 58 54 53 53 54 57 54 46 47 52 55 52 43 41 45 44 45 44 42 45 48 48 49 47 46 49 50 48 41 33 29 27 25 24 23 24 27 30 35 40 40 39
85 84 82 81 80 79 79 79 79 78 77 78 78 81 83 83 86 86 84 89 84 67 61 60 57 55 52 50 50 51 55 53 50 52 51 53 60 61 65 70 70 70 71 71 67 60 57 55 51 50 53 54 49 44 47 51 53 49 43 44 46 45 46 44 43 47 49 50 52 47 45 52 54 47 41 36 30 28 26 25 25 26 29 33 37 40 40 39
85 84 83 83 83 82 83 82 81 81 80 80 82 86 88 90 94 93 93 93 81 68 63 59 58 56 52 50 50 49 50 50 48 48 47 48 52 55 61 68 71 73 72 71 66 61 61 58 52 50 50 48 46 46 48 49 49 47 46 47 47 47 46 45 49 50 48 53 54 47 45 54 57 44 36 36 32 30 30 29 31 31 33 36 38 39 39 38
86 86 86 86 84 83 83 82 82 83 85 86 89 92 94 98 98 97 100 91 72 64 63 58 56 55 52 50 50 50 50 49 48 47 47 47 48 51 54 60 67 71 73 72 67 63 62 59 55 52 48 46 47 48 47 47 49 48 49 49 48 49 47 47 49 45 51 59 53 46 43 50 59 46 32 34 34 33 35 34 34 35 35 36 37 38 37 37
87 88 86 85 84 84 82 81 84 88 92 93 96 98 99 101 100 100 100 84 65 62 61 57 54 52 52 51 50 50 50 49 49 48 48 47 47 49 50 54 60 68 74 72 66 61 58 56 54 51 49 49 49 49 48 49 50 49 50 50 50 51 49 51 51 50 65 70 52 44 43 50 60 48 32 35 35 34 37 36 34 34 35 36 36 36 36 36
88 89 88 87 88 90 87 84 88 94 97 99 100 100 100 101 100 99 96 80 66 67 64 59 57 55 54 54 52 52 51 50 49 48 49 49 48 47 48 50 54 62 68 64 59 57 54 51 50 50 50 50 51 51 52 51 50 50 50 50 53 55 56 63 66 66 73 66 47 43 46 52 57 44 34 37 36 36 39 38 37 37 38 39 38 38 37 36
95 96 96 95 94 95 94 92 95 99 100 100 100 100 100 101 98 94 92 82 70 68 67 63 62 61 59 57 56 54 53 51 50 50 51 51 50 48 48 49 51 55 57 54 54 55 53 51 49 51 51 50 51 50 50 49 48 49 48 49 54 60 72 83 80 73 70 55 43 47 53 55 50 42 41 40 38 39 40 40 42 40 39 37 36 38 39 37
100 100 100 99 98 99 99 99 100 100 100 100 100 100 100 100 96 91 90 83 76 73 69 65 63 64 64 61 58 56 54 52 51 52 52 51 50 49 48 48 50 52 53 53 54 54 55 52 47 48 49 48 48 47 46 47 47 47 46 48 52 54 66 76 70 63 59 49 45 52 56 52 43 41 43 40 39 41 41 42 41 37 35 34 34 36 38 39
100 100 100 100 100 100 100 100 100 100 101 100 100 101 99 96 95 93 89 82 81 79 74 70 67 66 65 63 61 58 56 54 53 54 54 52 50 49 48 48 49 52 54 55 54 53 54 50 44 43 44 43 43 42 43 46 48 49 48 51 52 47 48 53 53 52 52 55 58 57 54 49 43 42 43 42 43 41 39 38 36 35 36 37 40 39 39 41
101 100 100 100 100 100 100 100 100 101 100 100 101 101 99 96 91 89 85 82 81 80 78 77 76 73 72 69 67 64 61 59 57 57 57 55 54 52 51 51 51 54 55 54 53 52 51 49 46 45 43 41 41 41 41 44 47 48 49 50 48 46 47 51 55 54 58 69 67 55 51 50 48 46 45 44 43 38 36 35 35 38 38 39 44 44 43 44
100 99 99 100 100 100 100 99 101 101 99 102 100 93 91 93 89 84 81 80 79 79 80 81 80 78 76 75 73 69 65 64 61 60 60 58 58 56 55 55 56 57 57 55 53 52 50 49 50 50 47 44 43 43 44 46 47 47 48 47 47 53 57 58 61 64 71 80 70 53 49 50 48 46 45 43 40 38 37 37 39 41 42 45 49 49 48 48
99 100 101 100 100 100 99 100 101 100 99 101 97 89 86 86 86 85 82 80 80 80 80 79 78 75 74 75 75 70 67 66 64 63 63 63 61 60 59 59 59 58 58 57 55 54 53 52 52 53 52 50 50 51 51 52 51 51 51 51 52 59 62 61 65 73 79 83 74 59 50 48 48 46 44 44 42 42 44 45 46 47 48 52 53 54 55 54
95 97 98 97 100 100 100 101 100 99 102 99 93 91 88 84 85 89 87 84 81 79 77 74 73 73 72 73 75 73 69 67 66 66 66 65 64 63 61 58 58 58 56 56 56 56 57 56 55 57 57 55 56 58 56 55 55 56 58 58 57 59 61 61 63 66 71 76 75 65 55 50 48 45 45 47 46 47 50 50 50 51 53 56 58 60 61 60
91 90 88 91 99 101 100 101 99 100 100 92 87 92 92 88 89 90 89 88 84 80 77 74 73 73 72 73 76 76 73 71 69 68 68 68 67 67 65 63 61 60 57 57 57 58 61 61 60 63 65 63 62 60 56 55 58 60 61 63 63 62 63 65 66 62 64 75 78 74 68 55 47 46 47 48 50 52 54 53 54 57 59 61 63 64 64 64
93 90 85 88 99 101 100 101 99 99 97 90 91 95 96 93 88 86 87 87 86 84 81 80 79 78 76 77 79 78 78 76 74 73 72 72 71 70 69 68 66 63 62 62 63 64 65 66 65 66 68 66 63 61 59 60 63 63 64 65 65 67 68 72 77 68 63 71 71 70 71 58 46 49 53 53 55 56 58 59 60 63 65 66 67 66 65 64
98 97 92 92 98 100 101 100 98 99 97 93 94 97 97 94 87 84 85 86 88 88 87 86 87 87 86 85 83 82 82 81 79 79 77 75 75 74 74 74 71 67 66 68 71 72 72 75 75 72 69 68 69 69 67 66 66 66 67 67 67 70 69 71 78 70 63 69 65 66 75 68 55 55 57 59 62 62 64 64 65 68 68 66 60 52 51 54
98 100 99 98 100 100 101 100 98 100 97 92 94 98 98 96 92 88 87 88 91 90 88 88 89 91 92 90 89 88 87 86 84 83 80 78 77 79 81 80 77 75 74 73 75 76 79 83 84 80 74 72 75 77 73 70 69 68 68 67 67 68 67 69 75 74 74 75 70 75 82 72 64 63 60 63 66 66 66 66 66 67 63 56 49 44 46 50
98 100 100 100 100 100 100 97 93 94 94 89 92 98 100 100 99 95 90 89 90 88 86 88 90 93 94 93 94 93 93 94 92 88 86 84 83 82 83 84 84 84 83 83 84 84 86 88 88 89 89 86 84 85 84 80 76 73 71 70 68 67 68 70 73 80 89 84 76 83 85 71 68 70 66 68 71 69 69 69 66 65 60 52 47 45 45 44
99 100 100 100 100 100 100 97 94 93 93 91 92 96 99 99 100 99 96 94 92 90 90 93 94 96 98 98 98 98 98 97 97 96 93 89 85 81 79 80 81 80 79 81 83 85 87 88 88 90 92 91 86 83 82 79 76 77 76 73 72 69 67 71 75 84 94 89 81 85 81 73 73 74 72 74 74 72 72 71 69 67 59 47 36 31 30 34
100 100 100 99 100 100 99 98 99 99 97 97 98 98 99 100 100 99 100 100 98 96 97 98 98 99 101 100 99 100 99 97 97 96 90 84 80 74 70 69 69 69 72 77 82 88 93 94 92 90 88 85 80 77 74 71 69 70 69 67 68 63 63 75 86 88 87 86 85 80 75 76 74 69 73 78 75 75 74 69 63 54 40 27 21 25 35 50
100 100 99 100 100 100 100 100 100 100 99 100 100 99 99 99 99 99 100 100 99 98 100 100 99 100 99 96 99 100 94 91 92 89 85 84 83 79 75 72 74 78 81 87 92 94 98 100 97 96 95 91 87 84 82 80 78 77 74 72 67 63 66 76 85 84 82 85 85 74 70 78 74 63 68 72 65 60 54 43 33 24 17 15 20 32 50 65
100 99 99 100 100 98 98 99 99 100 100 99 100 100 100 99 99 101 100 99 98 98 100 99 94 92 89 87 93 96 90 90 92 88 86 89 90 88 87 87 90 91 92 94 95 93 97 101 97 97 100 97 96 95 92 91 91 87 82 75 65 63 70 77 78 74 69 70 69 61 58 60 56 47 45 42 34 25 19 14 11 11 12 14 18 28 43 58
98 97 97 99 100 96 95 96 99 101 100 100 101 99 98 99 99 98 98 100 100 96 98 97 88 83 85 84 88 92 88 88 91 85 81 84 88 90 94 98 98 97 97 98 98 97 98 99 98 99 101 97 96 96 91 91 91 85 78 69 61 66 74 72 61 50 49 52 45 36 35 31 24 21 18 14 12 10 10 11 11 11 12 13 15 20 29 41
92 93 92 93 92 89 89 92 94 96 95 98 100 93 93 98 96 94 96 97 94 89 88 89 82 80 83 82 83 84 77 75 81 77 70 76 81 81 87 95 96 98 100 99 99 101 99 98 99 98 98 96 92 89 86 84 83 79 69 56 54 63 61 48 36 32 42 46 30 24 33 23 7 7 10 11 13 13 13 13 12 13 13 13 13 14 19 30
86 87 87 87 83 80 81 80 81 83 81 83 85 82 87 90 83 83 86 84 83 83 80 77 74 76 79 79 78 75 69 72 79 73 68 75 79 75 81 93 95 94 95 95 98 101 98 99 99 96 97 95 86 81 77 71 71 69 53 36 38 45 36 24 21 21 25 25 22 31 39 21 6 11 16 17 16 13 12 14 14 14 15 14 18 27 38 48
82 82 82 84 81 78 77 72 73 78 74 69 69 68 71 70 65 71 80 81 81 81 79 78 77 78 80 77 72 66 65 72 78 76 78 85 86 83 86 93 93 90 91 93 96 100 99 99 99 97 95 88 80 76 68 65 75 70 43 22 22 23 16 13 14 11 10 14 21 28 26 16 15 21 19 16 16 14 16 17 17 20 25 32 43 54 61 61
Wind_Speed
5 5 4 4 4 3 3 3 3 3 4 5 5 6 6 7 7 8 8 8 8 8 8 8 8 8 7 7 8 8 9 9 10 9 9 9 9 9 9 8 7 7 6 6 6 6 6 7 7 7 7 7 8 7 7 7 7 6 5 3 1 0 2 3 5 7 8 9 10 12 14 16 17 17 19 20 19 18 14 11 11 12 13 13 12 13 15 15
7 6 6 6 5 5 5 5 5 5 6 6 7 8 8 8 9 9 9 9 9 9 9 9 9 8 8 8 8 8 9 9 10 9 9 9 8 7 7 7 7 7 7 7 8 8 7 7 7 7 7 8 7 7 6 6 7 7 5 3 1 1 1 2 6 8 11 11 11 12 13 15 15 16 18 20 20 18 15 11 11 10 9 9 11 14 16 18
8 8 7 7 7 7 7 7 7 8 8 9 9 10 10 10 10 10 10 10 10 10 10 10 10 9 9 9 8 9 8 9 10 9 9 8 7 6 7 8 8 9 9 9 9 9 8 7 7 7 7 8 7 6 6 6 7 7 5 3 2 3 2 3 5 8 11 12 12 12 12 13 13 15 17 20 21 18 14 12 12 10 6 6 9 13 16 19
10 9 9 9 8 8 8 8 9 10 10 11 11 11 12 12 12 12 12 12 12 11 11 11 10 10 9 9 9 9 8 9 9 8 7 7 8 8 9 9 9 9 9 9 9 8 7 6 6 6 7 8 8 7 7 8 8 7 6 4 3 5 4 4 6 8 10 12 12 12 13 13 13 14 15 18 21 16 12 12 13 11 8 6 8 11 13 15
11 10 10 10 10 10 10 10 11 12 12 13 13 13 13 13 13 13 13 13 13 12 12 11 11 10 9 9 9 8 9 9 7 6 8 10 10 9 9 9 9 8 8 7 7 7 7 7 7 8 8 9 10 10 10 10 11 9 8 7 7 8 6 5 8 9 10 12 12 13 15 15 13 13 13 16 17 15 13 13 13 12 11 10 9 10 11 11
12 12 12 12 12 12 12 13 13 13 14 14 14 14 14 14 14 14 14 14 13 13 12 12 11 10 10 9 9 8 9 8 7 8 10 11 11 10 10 9 9 8 8 8 8 9 10 10 10 11 12 12 12 12 12 13 13 12 11 10 10 11 10 9 10 10 11 13 13 14 16 16 15 13 12 14 13 13 14 15 15 13 12 12 10 10 11 11
14 13 14 13 14 14 14 14 15 15 15 15 16 16 16 16 15 15 15 15 14 13 12 12 12 11 11 10 10 10 9 9 10 10 9 10 11 11 10 10 10 10 10 10 11 12 12 13 13 15 15 14 13 12 13 15 15 16 14 13 12 13 13 12 12 11 12 14 15 17 17 15 14 14 13 11 10 13 16 16 15 13 11 12 11 11 13 14
15 15 15 15 16 16 16 16 17 17 17 17 17 17 17 17 16 15 15 14 14 14 13 13 13 12 12 12 11 11 10 10 12 11 10 11 12 12 12 11 12 12 12 13 13 14 14 14 15 16 16 15 15 14 15 16 16 17 16 15 15 15 15 13 14 13 13 15 15 17 17 12 12 16 13 8 9 15 17 16 13 10 10 12 13 14 15 15
17 17 17 18 18 18 18 18 18 18 18 18 18 18 17 17 16 15 15 15 15 15 14 14 14 14 14 13 13 13 11 11 12 12 13 13 13 14 14 13 13 14 14 14 15 14 14 15 15 16 16 16 17 16 16 16 16 16 16 17 16 15 15 14 15 14 14 15 14 15 14 9 12 15 11 8 12 16 16 14 11 10 11 14 16 17 17 17
19 19 19 19 19 19 19 20 20 20 19 19 19 18 18 17 16 16 15 15 15 15 15 15 15 15 15 15 16 14 12 13 14 14 15 16 16 16 15 15 15 15 15 16 15 15 14 15 16 16 17 17 17 16 16 16 16 16 17 18 15 15 15 15 16 14 14 15 13 14 12 9 13 13 9 11 14 15 13 11 11 12 13 17 19 19 19 19
21 21 21 21 21 21 21 21 21 21 20 20 19 18 18 17 16 16 16 16 16 16 16 16 16 16 16 17 17 15 15 16 16 16 16 16 17 16 16 17 16 16 17 17 16 16 16 16 16 16 16 17 16 16 16 16 17 17 17 17 14 15 16 15 16 14 15 14 12 14 13 11 12 11 13 15 15 14 11 8 11 14 15 19 21 21 22 22
22 23 23 23 23 23 23 22 22 21 20 20 19 19 18 17 17 17 17 16 16 17 17 17 17 17 18 18 18 17 17 18 17 17 17 17 18 18 18 18 17 17 18 18 18 17 16 16 17 16 16 18 17 16 16 16 16 16 17 18 16 17 16 15 15 14 15 13 13 15 14 12 12 13 16 17 15 14 11 8 12 16 18 21 23 23 24 25
24 24 24 24 24 24 23 23 22 21 20 20 20 19 19 18 18 18 18 18 18 18 18 19 19 20 20 20 19 19 19 19 19 19 18 18 18 18 19 19 18 18 19 19 19 18 18 17 17 17 18 17 17 17 17 16 16 16 18 19 19 19 17 15 13 15 15 14 13 13 14 15 14 16 18 18 16 13 11 11 15 18 20 23 25 25 26 26
25 25 25 25 25 24 23 23 22 21 21 21 21 20 20 20 20 20 20 20 20 20 20 21 21 22 22 22 21 21 21 21 20 19 19 19 19 19 19 19 19 19 19 19 19 19 18 18 17 17 17 16 17 18 18 17 16 17 18 18 19 18 17 13 13 17 17 15 12 12 16 18 18 17 17 17 16 13 12 14 18 21 22 25 26 27 26 24
26 26 26 26 25 24 23 23 23 22 22 22 22 22 22 22 22 22 22 22 23 23 23 23 23 24 24 23 23 23 23 23 22 20 20 19 19 18 18 18 18 19 19 19 19 19 18 17 16 16 16 17 19 19 18 16 16 17 18 18 17 18 17 15 15 17 16 14 13 14 16 20 21 19 15 14 14 13 15 17 20 22 24 25 26 26 24 19
27 26 26 26 25 24 24 24 24 24 23 23 24 24 24 24 24 24 25 24 24 24 24 24 24 25 25 24 24 23 22 22 21 20 20 19 19 19 19 19 19 19 19 20 20 19 18 17 17 17 18 19 20 18 17 17 18 19 19 18 17 18 18 16 16 17 16 15 16 17 18 23 25 21 14 11 12 15 17 19 21 23 24 24 24 23 20 15
27 26 26 26 25 25 25 25 25 25 25 25 25 26 26 26 26 26 26 25 25 25 25 25 24 25 25 24 23 23 22 23 22 21 20 20 20 20 20 20 20 20 20 21 21 20 19 19 20 19 19 20 20 18 16 18 20 20 19 18 18 17 17 18 19 17 15 15 16 19 23 27 26 20 14 10 11 16 19 20 22 21 19 19 21 21 18 15
27 27 27 27 27 27 27 27 27 27 27 27 27 26 26 26 26 26 25 25 25 24 25 24 23 24 24 22 22 21 21 21 20 19 18 18 18 19 20 20 19 19 19 19 20 20 20 21 21 19 20 21 20 19 19 20 21 20 18 19 18 17 18 20 20 17 16 17 19 22 26 28 24 19 13 11 12 15 18 21 20 16 13 14 17 18 19 19
28 28 28 28 28 28 28 28 28 28 27 27 26 25 25 25 25 25 25 24 25 25 24 23 22 22 22 20 20 20 20 20 19 20 19 20 21 22 21 21 20 19 18 18 18 18 19 20 20 20 22 22 20 22 23 22 20 18 18 18 18 18 20 22 21 19 19 22 23 24 27 26 21 16 14 13 14 14 17 18 16 12 11 13 15 18 20 21
29 29 29 30 29 29 29 28 28 27 26 26 25 24 25 25 25 25 25 25 25 25 25 24 23 23 23 23 22 22 23 23 23 24 24 24 24 24 23 22 22 21 21 20 18 19 20 20 21 23 23 21 21 23 21 19 18 19 18 19 20 20 23 23 21 19 20 24 26 26 26 24 19 17 16 15 14 15 17 16 13 11 12 15 19 21 23 23
31 31 31 30 29 29 28 27 27 26 26 26 25 25 25 24 25 25 26 26 25 26 26 25 26 26 25 24 23 23 24 25 25 25 25 26 25 26 26 25 24 24 24 22 21 23 23 24 26 27 24 22 21 20 20 20 20 20 19 19 20 21 24 23 21 21 23 26 28 25 24 22 19 19 18 16 14 14 15 14 12 12 15 20 23 24 25 25
32 32 31 30 29 28 28 27 27 26 26 25 25 24 24 24 25 26 27 28 27 26 27 26 27 28 26 25 24 23 26 26 26 26 25 26 27 28 28 28 27 27 25 24 25 24 25 27 26 23 19 19 20 21 22 22 22 20 19 20 21 22 23 21 20 21 20 21 22 21 23 23 22 21 20 18 15 13 13 13 14 16 21 25 25 24 25 25
33 32 31 29 28 28 27 27 27 26 25 25 24 24 24 24 25 26 28 30 30 28 28 27 28 28 26 26 26 25 27 27 26 27 27 29 29 29 30 30 28 27 26 26 27 25 26 24 20 16 15 17 18 19 21 21 21 20 19 20 22 23 21 20 20 17 17 18 19 21 24 25 24 23 22 19 14 11 13 15 18 21 24 25 24 24 24 25
33 32 31 29 28 28 28 27 26 26 25 24 24 23 24 24 26 27 28 31 34 32 29 29 29 29 27 27 27 27 28 28 28 29 29 31 31 31 32 30 27 27 27 27 26 27 26 22 19 18 18 19 18 18 20 21 20 18 19 21 23 22 20 21 20 17 18 19 19 22 24 27 26 20 16 16 15 13 14 18 20 21 22 24 24 24 23 24
33 32 31 30 29 29 28 27 26 25 25 24 23 23 24 25 26 27 27 30 35 34 32 32 30 29 28 27 27 28 29 30 30 30 30 31 32 32 32 30 28 27 26 24 24 25 25 20 19 20 20 19 19 19 20 19 18 17 19 20 20 18 17 19 18 19 21 19 18 17 13 17 20 13 13 19 20 17 16 18 19 19 21 23 25 24 22 23
33 32 31 30 30 29 28 28 27 25 24 23 24 24 24 25 25 25 26 27 33 34 30 30 27 24 24 24 25 26 28 30 30 30 31 31 32 32 31 31 30 27 23 21 21 24 24 20 19 20 19 18 17 18 19 17 17 18 18 15 14 14 15 15 16 17 16 13 13 10 9 15 17 15 19 22 19 18 17 17 18 19 21 22 25 24 22 22
33 32 31 31 30 30 29 29 28 26 25 24 24 24 25 25 23 24 22 19 23 24 20 18 18 17 17 17 20 21 21 21 21 25 28 28 30 31 29 30 30 26 22 20 21 23 22 17 17 18 18 18 18 18 17 15 17 19 15 12 11 13 14 14 14 14 15 16 15 13 17 22 22 21 19 15 14 17 17 16 18 20 21 22 24 24 22 21
33 32 32 31 32 32 31 31 30 28 26 26 26 25 25 24 22 20 14 7 8 9 7 9 10 11 13 13 15 18 18 17 14 15 18 19 23 25 25 27 27 24 21 21 24 22 18 14 13 14 15 16 16 14 12 13 15 16 13 12 13 13 13 14 14 14 17 19 17 18 20 18 18 20 14 10 15 16 15 16 18 20 21 22 23 23 22 21
34 33 33 32 33 34 34 33 31 29 28 28 27 26 25 23 20 16 8 5 6 5 7 10 10 10 12 13 15 16 17 17 15 14 15 15 17 19 20 21 23 23 21 23 25 21 17 14 12 12 14 14 12 10 11 12 13 14 14 15 15 13 13 14 14 17 18 17 17 23 22 14 15 18 9 9 14 12 13 16 17 20 21 21 22 21 21 21
35 35 34 35 36 37 37 36 33 30 29 28 27 26 25 22 20 12 8 9 8 6 8 11 14 15 15 16 17 16 17 16 16 16 16 16 15 16 17 17 19 22 22 23 23 21 20 17 15 15 14 12 11 13 14 14 15 17 16 15 14 14 16 16 17 18 14 12 18 23 20 15 10 6 3 8 9 8 8 10 11 14 15 16 18 18 20 22
37 37 37 38 39 39 39 37 33 30 29 29 28 27 25 23 21 13 9 14 14 11 13 14 15 18 17 18 18 17 19 18 17 16 16 15 14 14 16 17 18 20 21 24 22 19 20 19 18 17 16 15 15 16 17 17 18 18 16 16 13 11 12 13 15 13 6 8 15 15 13 17 14 5 4 5 7 7 5 6 8 10 10 12 15 17 20 23
38 38 38 38 38 38 38 36 33 31 31 32 30 29 27 21 21 22 17 14 10 10 15 16 17 18 18 19 20 19 19 19 18 18 15 15 14 14 15 15 17 16 17 22 21 18 18 19 19 17 17 18 18 18 18 19 20 19 18 17 11 4 4 6 6 4 6 12 15 11 8 14 21 19 15 13 13 13 14 14 14 14 13 13 15 18 22 25
36 36 36 37 36 35 35 33 32 31 30 31 30 31 31 20 20 31 30 21 12 8 10 13 15 18 19 21 22 20 19 19 19 18 16 16 16 15 14 14 17 16 12 14 17 16 14 15 18 20 19 19 20 21 19 18 19 19 20 19 13 5 1 3 4 2 7 14 15 13 10 10 17 19 17 19 19 18 19 17 13 12 13 16 18 20 23 26
34 33 34 34 34 34 33 30 29 29 29 31 31 31 33 25 19 27 31 30 26 17 11 11 13 17 20 21 21 20 19 18 18 18 17 18 18 18 18 18 18 18 15 11 12 14 11 9 13 16 17 16 17 19 18 17 17 16 17 19 19 15 8 5 4 3 4 6 7 10 8 6 10 9 8 10 10 11 13 12 11 15 21 23 23 23 24 26
30 30 31 32 33 34 32 29 28 28 28 31 32 33 36 32 24 22 26 31 32 25 18 15 14 16 17 19 19 19 18 18 18 18 19 20 20 21 21 21 20 20 18 15 11 12 13 13 12 13 14 13 12 14 15 18 18 15 16 19 23 24 20 13 9 10 7 4 5 10 9 10 14 16 15 13 12 13 14 15 17 21 24 23 22 23 24 25
31 31 31 32 33 33 31 29 29 29 27 28 31 36 41 36 26 23 24 26 29 30 26 21 18 17 17 18 19 20 20 19 20 20 20 21 22 23 22 20 21 21 20 19 15 12 12 12 12 13 13 14 14 13 14 17 16 14 16 21 23 22 21 17 12 12 8 4 9 13 13 16 18 22 24 21 20 21 18 17 17 17 19 19 20 22 23 24
33 33 33 32 33 33 31 30 31 31 30 28 30 36 41 37 30 25 22 22 25 29 29 24 20 20 19 19 20 22 22 21 21 21 21 20 19 22 24 23 23 23 21 20 18 16 16 15 15 14 13 14 16 15 16 18 19 18 18 20 19 16 17 15 8 5 3 3 7 12 16 18 15 16 21 20 19 20 18 18 18 16 15 14 16 18 20 21
28 31 34 33 32 32 31 32 33 32 30 30 35 38 39 38 35 28 23 22 22 24 27 25 21 20 19 19 19 21 22 22 22 21 21 21 16 15 20 23 25 26 24 22 21 20 20 19 18 18 17 17 17 18 18 19 22 24 21 18 16 13 13 15 9 3 3 3 3 8 15 20 19 18 19 18 17 18 17 15 14 12 10 9 11 13 14 17
24 26 29 31 30 31 32 33 32 30 29 34 39 39 40 40 37 33 29 24 21 21 25 25 23 20 20 20 20 20 22 24 24 23 22 22 19 16 17 20 22 24 24 24 24 23 21 17 14 14 16 16 18 20 21 22 23 25 23 21 21 17 14 16 15 8 4 3 3 5 7 14 20 20 18 15 14 13 11 11 11 11 10 10 10 10 12 14
24 25 26 27 28 32 34 33 30 29 32 38 40 39 39 36 32 32 32 28 25 25 25 25 25 25 24 24 23 22 24 25 25 26 24 21 20 19 19 20 21 20 19 20 23 24 23 20 15 12 13 15 17 19 21 23 24 25 26 25 25 24 20 17 18 18 12 4 2 2 4 14 25 24 20 18 15 13 12 12 13 12 11 11 11 11 13 14
25 27 28 25 25 31 33 32 32 34 36 38 39 39 39 34 29 31 33 31 30 29 28 28 28 28 28 27 27 26 26 26 27 28 28 26 23 21 20 20 20 18 17 17 19 21 20 19 18 18 18 19 21 22 22 23 24 25 28 28 28 27 23 15 12 20 21 12 8 7 5 17 29 28 21 18 16 15 14 14 15 14 13 12 11 12 14 15
28 30 30 26 27 32 34 33 34 37 39 40 39 38 37 35 32 32 32 32 31 31 30 30 30 30 30 30 30 29 28 29 30 30 31 31 29 26 23 22 21 20 19 18 19 20 19 17 20 25 28 28 25 21 21 21 23 26 27 29 28 26 25 19 11 14 18 15 16 14 9 18 30 29 24 22 20 19 18 18 18 16 15 14 15 19 20 21
29 31 30 29 31 34 36 35 35 38 41 41 39 37 36 36 35 34 33 33 31 30 30 31 32 31 31 32 31 32 32 31 32 34 34 34 33 30 27 25 26 25 24 23 22 22 22 20 22 27 31 32 28 24 22 21 22 25 27 29 30 27 28 26 20 18 15 14 16 10 6 17 24 23 25 25 23 23 23 23 22 20 21 22 23 25 25 25
31 33 33 33 33 34 34 35 35 38 40 40 39 39 39 38 37 37 37 36 33 31 30 31 31 30 31 32 33 34 34 31 32 34 35 35 35 32 29 28 28 29 30 29 28 27 24 21 21 19 16 19 22 20 21 24 26 27 27 29 31 31 30 28 27 22 14 16 21 13 10 20 21 20 26 26 24 26 26 25 26 27 29 30 29 28 29 32
32 33 33 34 35 35 35 35 34 35 36 38 40 41 40 40 40 40 39 37 34 32 31 31 30 30 31 32 33 35 35 34 31 29 30 32 32 32 30 29 31 34 35 36 36 34 30 27 25 20 11 11 13 11 12 20 25 28 29 30 30 31 32 30 25 17 11 13 20 20 22 26 25 25 28 27 26 27 27 27 30 33 35 36 36 36 37 37
33 32 33 33 32 34 37 37 36 37 39 40 41 43 43 43 43 42 40 38 36 34 33 32 31 31 31 32 33 33 33 33 30 28 29 30 30 31 32 32 33 34 35 35 34 32 31 31 32 31 28 26 25 20 16 16 18 21 24 26 27 26 29 28 20 15 16 16 20 29 33 29 28 30 29 27 27 29 31 34 36 38 40 40 40 39 37 35
33 34 35 33 30 32 38 39 39 40 41 42 42 43 45 45 44 43 40 38 36 33 32 33 33 33 32 32 31 31 32 32 31 32 32 32 32 32 32 32 31 30 30 30 29 29 31 32 34 35 35 36 35 30 26 24 22 23 24 28 31 30 29 29 23 21 24 20 22 35 37 30 33 39 36 34 35 37 39 40 40 41 42 40 38 35 33 33
31 33 34 33 30 30 35 39 41 42 43 42 41 40 41 41 41 40 37 34 33 32 31 33 34 35 35 34 32 32 33 32 32 33 33 32 33 32 32 31 30 30 29 29 29 31 31 33 34 34 33 33 32 30 29 29 28 29 31 35 38 38 35 34 32 33 34 29 32 41 40 36 40 43 41 41 41 41 42 42 42 42 40 38 35 33 33 34
30 31 30 31 32 32 31 31 32 36 39 39 38 37 37 37 37 36 34 32 32 33 32 34 36 36 36 36 35 36 36 34 34 35 34 33 34 33 33 31 30 31 30 30 30 29 29 31 31 31 30 30 29 29 30 31 31 34 38 40 42 42 39 38 39 41 41 39 42 44 42 43 45 44 43 42 41 41 41 39 39 38 36 34 33 33 34 35
31 32 30 30 32 34 32 30 30 32 33 34 35 37 37 36 35 34 34 33 33 34 35 36 37 35 35 35 36 38 39 37 36 36 35 34 34 35 36 35 33 32 31 31 30 28 29 28 26 28 29 29 31 33 32 33 34 36 40 43 44 41 38 40 43 41 39 40 42 41 42 45 44 40 39 36 34 36 36 36 36 35 34 34 33 34 35 36
33 33 33 32 34 35 35 35 34 33 34 36 38 39 37 36 36 34 34 35 34 34 35 35 34 34 35 36 37 39 38 36 36 37 36 35 35 35 34 33 32 31 31 31 31 31 31 30 28 28 25 26 31 30 29 31 31 33 41 45 42 39 40 42 43 41 41 42 41 38 40 43 38 32 30 30 30 33 34 34 34 33 33 33 32 33 34 35
33 34 34 34 36 37 36 35 34 34 38 40 39 38 37 37 37 35 35 36 35 36 37 35 34 35 37 38 39 38 36 35 37 37 36 34 32 31 31 30 30 31 31 31 31 31 30 29 29 26 22 23 25 24 25 24 19 26 42 46 39 39 42 42 42 42 40 39 38 37 38 36 29 26 27 29 30 31 32 32 32 31 31 31 32 34 35 36
Wind_Direction
215 220 225 232 237 242 250 258 270 281 291 298 304 307 307 306 305 303 302 301 300 300 298 297 296 296 295 295 295 294 294 294 295 299 299 299 301 298 296 294 292 289 289 290 292 298 304 307 306 307 309 303 302 305 306 308 310 313 321 331 332 202 203 222 258 271 270 270 275 284 292 297 302 307 303 305 309 311 324 328 306 294 294 298 295 285 280 275
226 231 236 240 243 247 253 259 268 276 284 290 294 297 299 300 298 296 296 295 294 292 290 289 288 289 289 290 290 290 293 295 298 304 303 303 306 302 298 296 294 293 292 292 292 296 300 300 299 302 304 300 299 301 304 303 303 306 313 326 299 251 231 261 270 274 276 277 280 287 291 296 303 304 303 307 306 311 329 322 293 292 292 288 283 276 275 274
237 241 244 246 249 252 256 263 270 277 284 288 291 293 293 294 292 291 290 289 287 286 285 284 285 286 287 289 289 290 292 295 302 308 307 308 312 307 299 296 295 293 292 292 292 294 296 296 295 297 295 293 297 300 301 298 296 301 308 316 278 257 283 294 282 278 279 282 288 293 292 294 299 300 305 306 304 315 331 313 301 306 298 277 275 274 274 276
247 250 251 253 254 257 262 268 275 281 285 288 289 290 290 289 289 288 287 286 285 284 284 285 286 287 289 291 292 295 296 300 306 308 307 309 308 302 298 296 295 294 294 294 294 295 298 300 294 291 290 292 300 304 301 298 297 301 305 305 289 281 290 295 291 289 287 289 295 298 295 292 294 299 304 301 303 321 328 308 312 319 309 286 274 277 280 282
251 253 254 255 257 260 265 270 275 279 282 284 285 285 285 284 284 283 283 283 283 283 284 284 286 287 290 291 294 299 303 307 307 304 305 305 304 301 299 301 302 302 300 301 302 304 305 305 301 297 297 300 306 306 301 299 300 303 303 300 293 291 296 299 296 293 291 295 300 301 297 297 303 306 301 299 308 324 324 315 319 323 316 299 282 278 280 284
254 255 255 256 258 262 265 270 273 276 278 280 281 281 281 280 279 279 279 279 279 280 281 282 284 286 288 290 294 298 304 304 296 297 300 300 302 302 302 305 305 304 302 304 304 304 305 305 304 302 301 304 306 305 300 299 301 301 303 301 297 298 307 309 301 300 302 304 305 300 298 305 311 306 299 304 316 321 320 320 320 322 314 303 297 283 271 266
256 255 255 256 259 262 266 269 272 274 275 276 277 277 277 277 277 277 277 278 278 278 280 282 284 286 288 290 292 294 298 296 292 296 296 294 298 298 299 300 298 297 296 297 297 297 298 300 301 299 301 304 303 300 296 296 298 300 305 303 302 306 313 313 306 310 310 307 305 300 303 315 312 302 305 316 322 323 324 324 323 326 319 311 304 283 266 257
254 254 256 258 260 263 266 269 271 272 273 274 275 275 275 275 275 275 275 276 278 280 282 283 286 288 288 289 289 290 293 293 293 296 295 294 294 293 293 292 291 290 290 289 289 291 293 294 295 295 299 301 298 294 291 293 294 299 304 303 305 309 311 309 307 313 310 303 303 300 310 322 304 301 313 325 326 325 327 329 329 330 326 316 303 289 279 269
253 254 256 258 261 264 266 268 269 271 272 273 273 273 273 272 272 273 273 274 277 280 282 283 285 285 286 287 286 287 291 289 289 292 293 292 291 291 290 287 286 284 284 284 284 286 288 289 289 292 295 293 292 291 290 291 290 294 298 298 304 307 305 303 306 311 305 302 300 299 311 312 292 301 313 323 325 324 325 331 335 333 325 309 296 292 289 283
252 254 257 259 262 263 265 266 268 269 270 270 270 269 269 269 270 271 272 274 276 278 280 281 282 282 284 284 284 287 290 286 286 287 288 289 288 288 287 285 284 282 281 281 282 283 282 282 283 285 286 287 288 288 289 289 287 291 291 294 301 299 299 303 307 308 301 302 299 295 305 294 286 295 305 321 325 319 321 330 332 330 316 297 290 290 290 287
253 255 257 259 261 263 264 265 267 268 267 267 267 266 267 267 268 268 270 271 273 274 275 277 278 279 281 281 283 287 286 284 285 284 283 284 285 284 284 282 281 281 280 279 279 279 278 277 277 278 279 281 284 285 286 285 286 289 289 291 294 293 298 305 307 304 299 300 293 291 298 290 286 291 305 323 324 313 313 321 322 319 304 291 289 289 289 289
254 256 258 260 261 262 264 265 265 265 265 265 265 265 265 265 265 266 267 268 269 271 272 274 275 277 278 279 282 285 284 282 282 282 281 281 281 280 280 279 279 278 276 276 276 276 275 274 273 273 273 276 280 282 281 281 283 285 287 290 291 293 300 306 304 300 298 296 287 289 293 290 291 295 308 323 321 310 308 310 310 304 296 292 291 289 288 287
255 257 259 260 261 263 263 264 264 264 263 263 264 264 264 264 265 266 267 268 268 269 271 272 274 275 276 278 280 281 281 281 280 279 279 277 276 276 276 275 275 273 272 271 272 273 272 271 270 270 271 274 276 274 273 276 280 283 285 289 294 298 302 304 299 294 295 293 286 283 281 286 294 297 311 323 317 308 304 304 300 295 294 293 292 291 289 288
256 258 259 260 261 262 263 263 263 263 263 263 264 264 265 266 267 268 269 270 270 271 272 272 274 275 276 278 279 279 279 280 279 278 277 275 273 272 271 270 269 269 268 268 269 270 269 268 267 268 270 271 271 271 272 273 278 281 282 288 294 294 296 297 291 290 291 288 286 282 280 288 296 301 316 321 314 308 305 303 296 292 293 292 293 294 297 301
256 257 259 260 261 261 262 262 262 262 263 263 265 266 267 268 268 269 270 271 271 272 272 272 274 275 276 277 278 278 279 279 279 277 274 272 271 269 267 265 265 265 265 266 267 267 267 265 264 265 268 269 269 268 269 272 275 278 283 289 291 290 291 292 288 289 288 285 287 285 284 291 296 307 323 318 310 310 306 302 294 291 291 292 295 299 307 317
255 256 258 259 260 260 260 261 261 262 263 264 265 266 267 268 269 270 270 271 272 272 272 272 273 274 275 276 277 277 278 277 275 273 273 272 270 268 266 264 263 263 264 265 266 265 263 261 260 262 264 266 263 262 267 271 274 280 285 288 288 289 290 291 290 288 285 284 288 287 287 291 295 307 319 311 309 309 304 298 292 291 292 295 300 305 315 323
254 256 257 258 259 259 260 260 261 263 264 265 266 267 269 270 270 270 271 271 271 271 271 271 272 273 273 275 275 275 274 273 273 272 271 270 269 268 267 266 265 264 263 263 263 262 260 259 261 261 261 259 257 258 263 269 279 287 289 286 285 284 282 285 289 288 284 282 283 286 289 291 294 303 307 301 304 304 300 296 292 291 296 300 304 309 313 313
254 256 256 258 259 260 261 261 263 264 265 266 267 268 269 270 270 270 271 270 270 271 270 271 272 271 272 274 274 274 272 271 271 270 268 266 267 268 267 267 266 263 261 260 260 261 260 260 258 254 253 251 250 257 263 274 287 290 284 281 279 274 271 278 284 284 282 280 278 282 288 290 292 298 300 303 304 297 293 294 292 292 299 307 306 306 307 305
254 256 257 258 259 260 261 262 263 264 264 265 266 267 268 269 270 270 270 270 270 271 271 271 269 269 271 272 271 270 270 270 269 268 269 268 268 268 268 266 262 259 259 261 264 264 261 255 249 247 249 250 258 272 278 284 287 280 272 268 267 265 265 271 277 278 279 280 280 282 286 289 291 294 299 305 304 296 291 288 285 286 296 303 301 299 299 300
255 256 257 258 259 260 260 261 261 262 263 264 265 266 267 269 271 271 271 271 271 271 271 271 271 270 270 270 269 269 270 269 269 270 269 269 269 268 266 262 260 259 261 266 267 265 260 250 247 252 257 263 274 281 282 279 272 265 262 257 258 261 265 271 275 277 280 282 283 286 287 287 287 291 295 299 297 293 289 280 272 276 290 297 297 296 297 299
254 255 256 256 257 257 257 258 259 260 261 263 264 266 268 270 272 273 274 272 272 272 273 273 272 271 270 271 270 270 269 268 268 268 268 268 267 265 263 261 260 261 264 266 265 263 258 253 258 266 272 275 274 269 266 263 260 260 257 255 257 259 266 274 279 283 285 282 283 286 283 280 283 287 288 292 294 289 283 273 263 266 282 292 294 294 297 300
253 253 253 253 253 254 255 256 257 258 260 262 264 267 270 272 274 275 276 275 274 273 274 275 274 273 272 271 269 266 265 266 267 266 266 266 264 263 263 262 263 264 264 264 263 262 257 259 271 279 275 266 259 255 256 255 255 254 251 254 258 261 270 278 283 287 286 283 284 282 279 280 285 286 285 290 293 284 273 266 259 263 278 288 289 289 292 295
251 250 250 250 250 251 253 254 256 258 259 262 265 267 270 273 275 276 278 279 276 273 273 274 273 273 271 269 268 266 265 265 265 264 263 262 262 262 263 263 264 264 263 262 262 259 257 266 281 280 263 254 251 250 252 253 252 250 248 252 258 265 271 276 281 283 280 280 281 279 280 282 284 286 287 289 291 283 271 266 265 269 279 285 285 285 287 290
248 248 248 247 247 249 250 251 255 257 259 263 266 268 271 272 274 276 278 281 278 274 273 273 271 270 269 268 268 266 265 264 261 259 259 260 261 261 262 265 264 262 262 264 265 263 264 271 274 267 262 257 252 248 248 250 252 252 251 253 259 266 269 273 278 277 275 276 277 282 286 283 285 289 286 287 292 291 281 273 273 278 282 285 285 284 285 289
246 247 246 246 246 247 248 250 253 256 260 264 266 269 270 271 274 277 281 283 281 279 278 276 272 269 267 265 264 262 260 259 258 258 257 256 258 260 261 263 262 261 264 265 265 264 266 269 263 258 257 256 252 250 246 247 253 255 254 255 260 267 268 271 274 274 278 277 274 284 292 287 286 280 282 296 299 295 284 276 277 279 279 281 284 284 286 291
244 245 245 245 245 247 249 251 253 256 259 262 265 268 268 271 273 276 283 286 284 284 284 279 274 269 265 259 258 257 254 255 256 257 256 255 256 258 259 260 260 261 263 263 261 262 264 264 256 250 248 248 248 247 243 243 253 257 257 258 260 264 267 269 268 267 272 273 270 274 279 283 279 271 286 299 296 287 280 278 278 275 274 276 278 280 284 289
241 242 243 245 247 248 250 252 253 255 257 260 263 265 266 269 270 274 287 291 285 286 285 273 265 263 261 252 247 245 246 251 252 251 253 254 254 255 255 256 258 259 256 250 247 256 266 263 251 247 243 240 239 241 242 242 251 255 257 261 260 264 268 267 267 264 265 267 264 261 269 276 274 276 289 291 274 273 271 270 270 269 272 273 273 277 282 283
240 240 242 245 248 250 252 253 254 255 257 259 260 261 262 263 264 270 284 291 281 289 275 240 233 245 248 241 238 236 237 245 247 247 251 251 251 252 251 250 253 254 250 242 242 253 266 259 244 240 236 236 236 239 240 239 246 252 256 263 266 269 267 264 265 264 269 273 266 260 264 269 273 280 289 267 251 253 252 255 262 266 269 271 273 278 281 279
240 242 244 246 249 251 252 254 255 256 256 257 257 257 256 257 259 260 260 247 247 256 243 227 218 226 234 235 238 238 239 245 245 245 247 245 244 246 246 245 244 244 240 240 243 248 251 247 236 230 230 234 233 230 230 231 240 247 254 262 268 271 267 264 265 264 271 274 264 264 262 255 276 288 277 240 240 239 247 255 260 265 266 268 273 277 277 274
242 244 246 248 250 253 254 255 255 253 253 252 251 251 250 251 250 239 225 232 241 247 233 221 223 228 231 234 241 244 246 246 243 240 239 239 240 240 239 237 235 235 234 238 242 239 237 239 236 230 229 228 221 217 221 227 236 242 248 254 259 263 262 263 267 270 278 272 261 268 264 248 269 308 186 209 221 218 249 259 259 267 270 273 276 275 275 272
244 246 248 250 252 254 255 256 254 250 249 248 246 245 245 246 239 223 225 240 248 253 233 216 220 227 230 235 240 245 246 245 241 235 232 233 236 233 230 228 225 226 229 234 238 236 231 232 233 231 227 224 221 221 226 232 236 239 244 248 249 256 264 264 265 264 258 262 267 271 258 236 233 221 181 215 213 206 256 285 274 281 285 282 280 276 275 272
246 247 249 250 251 253 254 254 254 252 251 248 245 241 236 233 226 219 223 238 247 248 232 224 223 224 229 233 236 239 240 240 239 236 234 233 233 234 232 229 222 218 226 232 234 235 233 231 231 230 228 226 226 228 230 233 234 236 237 237 233 249 291 263 252 242 230 254 265 256 228 226 237 247 256 259 253 251 270 282 279 284 290 287 283 278 276 270
242 243 246 247 249 250 251 251 248 245 242 237 235 232 222 217 225 224 222 225 231 232 224 220 219 220 226 231 233 235 234 235 237 236 236 232 229 231 228 228 226 222 230 234 229 233 241 236 229 228 229 226 224 229 232 235 236 234 235 231 217 182 84 249 243 269 258 261 258 239 225 238 250 259 262 259 261 262 266 269 269 275 288 295 289 279 273 265
235 236 239 241 244 244 243 243 238 232 224 217 213 208 206 211 227 226 221 225 229 231 220 205 204 212 220 226 232 235 234 235 235 233 233 229 226 225 222 221 222 221 228 238 230 228 238 243 229 226 230 227 226 233 240 245 246 244 243 239 227 215 206 219 223 203 239 268 246 211 204 234 246 248 250 248 249 247 249 254 261 276 288 293 285 273 267 259
230 232 236 238 238 237 236 235 229 219 210 207 201 196 202 212 218 215 219 224 225 225 220 209 207 209 215 223 228 232 233 233 233 231 231 232 232 233 231 227 223 217 219 227 230 227 235 249 246 237 241 241 237 238 237 239 244 245 239 233 234 235 233 236 248 246 251 291 254 217 215 241 253 259 259 255 257 259 264 269 271 280 287 286 278 269 261 254
233 232 235 237 236 235 234 229 220 211 208 204 199 202 210 214 215 217 222 223 220 221 221 217 218 218 220 227 229 231 231 231 233 232 233 237 238 238 236 231 226 220 220 226 229 231 238 248 250 245 248 249 243 237 230 230 235 236 231 232 238 239 235 236 253 260 254 268 261 248 245 252 261 270 268 267 273 278 284 284 278 279 280 278 275 268 259 253
236 237 241 242 236 234 233 226 220 218 218 215 212 216 219 218 220 223 223 219 215 218 221 222 222 224 227 230 230 231 230 229 231 230 231 233 235 237 233 228 226 225 227 232 235 242 248 252 255 250 244 241 236 233 232 234 236 236 237 241 241 233 228 227 238 264 238 234 259 253 257 261 260 266 272 276 286 292 293 286 279 275 273 270 267 263 258 256
239 242 242 239 232 230 226 220 220 223 222 225 229 231 230 227 225 224 220 216 210 213 221 223 224 227 229 228 227 226 225 224 225 225 227 228 231 236 229 225 229 230 232 235 238 244 248 254 258 247 234 233 234 232 231 233 237 237 238 239 232 223 221 216 214 237 229 224 265 249 255 264 261 263 277 287 294 297 292 280 272 268 261 254 254 258 261 261
240 242 238 234 229 225 220 218 222 223 219 224 230 231 233 233 228 222 220 218 212 214 220 223 225 228 231 231 229 224 222 223 224 222 223 225 226 231 227 223 228 231 233 234 235 238 240 246 254 241 229 230 230 230 231 232 232 231 231 229 228 230 227 217 217 223 214 214 261 250 247 264 268 273 284 292 293 288 274 263 262 259 254 252 258 265 268 268
241 242 243 242 231 221 222 226 227 220 217 223 226 226 230 232 227 220 220 222 224 224 226 228 230 234 238 238 234 230 225 224 224 223 223 222 221 225 227 224 226 227 227 227 229 232 233 236 242 239 230 227 228 235 241 239 233 229 228 226 227 232 233 233 237 239 235 217 220 244 254 262 269 277 281 282 280 264 246 248 254 254 258 265 272 277 277 276
242 241 243 244 229 216 217 220 219 215 219 226 227 226 229 230 225 220 221 224 227 230 232 235 237 240 244 242 237 234 230 225 223 223 224 223 220 222 224 222 221 219 216 216 220 224 227 232 241 245 245 244 247 250 249 242 234 231 231 231 231 233 233 238 246 242 239 232 226 238 262 265 268 275 278 273 265 251 243 249 255 260 268 273 278 285 287 285
237 236 238 238 228 219 214 215 216 217 222 228 229 229 232 233 230 227 227 228 230 233 237 239 241 242 244 244 241 238 234 230 227 225 227 229 228 227 226 223 220 216 211 211 213 223 233 242 250 256 260 262 258 249 241 233 228 227 229 231 232 232 232 232 236 240 237 235 241 246 255 263 264 268 270 266 260 259 262 264 264 264 263 268 283 294 296 290
233 232 233 232 228 224 221 222 222 220 223 231 234 233 235 236 235 233 234 234 235 237 239 241 243 242 242 243 242 240 236 233 232 230 231 234 233 231 233 238 238 235 230 229 231 237 245 250 253 257 263 262 253 242 232 223 219 222 225 229 231 233 237 238 243 246 239 234 240 242 247 258 259 260 261 261 262 267 271 272 270 268 271 282 293 297 295 289
232 231 230 230 230 227 224 225 225 224 227 234 237 236 235 235 235 235 236 236 237 240 242 244 246 245 245 244 242 241 238 237 238 237 235 237 237 238 243 248 247 245 244 245 249 253 254 250 244 246 260 260 251 244 234 225 225 227 228 229 233 238 242 245 248 248 242 242 243 240 253 258 257 257 256 257 262 266 267 269 270 273 281 292 297 295 292 290
228 228 227 229 232 231 230 231 232 233 235 237 238 238 237 235 236 236 235 235 236 241 245 246 248 249 248 247 245 244 243 243 244 245 243 243 244 246 249 250 249 250 251 252 256 258 257 251 241 232 233 244 244 241 234 234 236 237 238 239 242 246 249 249 247 235 225 238 237 237 250 256 256 259 259 257 258 260 262 266 270 274 282 289 292 292 291 291
225 224 224 224 225 227 231 236 237 238 239 236 234 236 236 234 235 234 232 232 235 240 244 246 247 247 246 246 247 246 245 244 245 248 251 253 255 256 257 257 256 255 255 254 255 253 249 246 242 239 238 243 250 255 254 248 237 234 241 247 250 253 251 245 237 226 234 240 236 241 249 252 254 259 259 257 259 263 268 273 276 279 283 287 288 289 288 287
225 226 227 223 220 223 228 230 230 231 233 231 228 232 235 235 235 234 233 234 236 239 243 243 243 242 242 244 244 244 245 246 248 251 253 256 257 259 260 260 259 256 253 251 248 246 244 245 247 247 247 250 254 256 256 255 249 245 250 255 258 258 251 245 243 245 247 245 245 253 256 253 256 261 263 266 269 272 275 278 280 283 285 286 287 286 284 283
227 229 228 225 225 227 228 229 228 226 226 227 227 230 234 235 233 232 234 238 239 239 240 241 241 242 245 246 245 247 249 249 251 252 251 252 253 254 254 254 253 251 249 247 246 245 246 248 250 251 251 251 252 252 254 257 259 260 260 262 262 260 255 253 255 255 255 253 256 262 264 262 264 267 268 271 275 278 280 281 281 281 283 284 285 285 283 281
236 235 233 230 230 231 232 233 232 229 226 226 227 229 231 233 233 234 238 242 243 242 241 244 246 247 248 248 246 247 248 247 248 250 250 249 247 247 247 246 244 244 245 245 245 243 243 246 249 249 249 251 252 254 258 260 262 263 263 264 265 263 261 261 262 261 260 259 262 266 268 267 268 271 273 276 278 280 280 279 278 279 282 283 284 283 282 280
245 244 244 241 239 238 238 237 237 237 235 233 234 235 234 236 240 242 244 246 248 248 247 248 251 252 252 251 249 249 251 251 251 254 255 252 248 246 245 242 241 241 242 243 241 238 240 243 246 249 251 254 255 257 260 261 261 261 262 262 261 261 263 263 264 265 263 263 267 269 268 269 273 277 280 280 277 276 276 277 279 280 281 282 282 281 280 280
249 249 249 249 248 248 246 246 246 245 244 242 242 243 243 246 250 252 251 251 252 253 254 254 255 255 254 253 252 253 257 258 258 259 258 254 252 250 244 241 241 244 246 247 244 242 243 244 247 250 251 253 256 257 257 257 258 259 259 259 257 259 263 265 267 269 269 270 272 268 266 272 279 280 278 275 272 274 277 278 280 280 279 280 280 278 278 278
248 249 249 250 251 251 250 252 249 245 247 249 249 248 250 253 255 254 252 252 252 252 254 255 256 255 254 253 254 256 259 260 258 256 253 250 248 245 241 241 245 250 251 250 248 246 245 246 246 245 244 248 252 252 252 255 260 258 257 260 263 265 268 270 271 272 273 273 272 269 271 278 282 276 273 274 277 279 280 279 279 279 278 278 277 275 275 277